384  
ASUS44 KOHX 190510  
RWROHX  
MIDDLE TENNESSEE HOURLY WEATHER ROUNDUP  
NATIONAL WEATHER SERVICE NASHVILLE TN  
1200 AM CDT SAT AUG 19 2017  
 
NOTE: "FAIR" INDICATES FEW OR NO CLOUDS BELOW 12,000 FEET WITH  
NO SIGNIFICANT WEATHER AND/OR S TO VISIBILITY
.  
 
* THESE REPORTS ARE NOT UNDER NWS QUALITY CONTROL AND MAY NOT  
REPORT WEATHER SUCH AS PRECIPITATION AND FOG.
 
 
 
TNZ005>011-023>034-057-059-062>066-078-080-190600   
..NORTHERN MIDDLE TENNESSEE
 
 
 
CITY SKY/WX TMP DP RH WIND PRES REMARKS
 
CLARKSVILLE N/A 68 65 90 CALM 29.98F  
CROSSVILLE N/A 64 63 96 CALM 30.05F  
GALLATIN CLEAR 68 66 94 CALM 30.01S  
DICKSON N/A 69 67 93 CALM 30.00S  
LEBANON N/A 69 65 87 CALM 29.98S  
NASHVILLE N/A 72 67 84 S3 30.00S  
PORTLAND CLEAR 72 66 83 CALM 29.98S  
SMYRNA N/A 69 67 93 SE3 30.00S  
SPARTA N/A 64 64 100 CALM 30.00F FOG  
SPRINGFIELD PTCLDY 70 68 94 S3 29.97S  
WEST NASHVILLE CLEAR 72 70 94 CALM 29.97S  

 
TNZ056-058-060-061-075>077-079-093>097-190600   
..SOUTHERN MIDDLE TENNESSEE
 
 
 
CITY SKY/WX TMP DP RH WIND PRES REMARKS
 
COLUMBIA CLEAR 68 68 100 CALM 29.98S  
FAYETTEVILLE CLEAR 70 68 94 CALM 30.00F  
MCMINNVILLE MOCLDY 68 68 100 CALM 30.02S VSB 1/2  
MURFREESBORO N/A 72 67 84 CALM 29.99S  
PULASKI CLOUDY 68 68 100 CALM 30.00S FOG  
SHELBYVILLE CLEAR 68 66 94 CALM 30.00F  
TULLAHOMA CLEAR 66 64 94 CALM 30.03S  
WINCHESTER CLEAR 68 66 94 CALM 30.02F  

 
 
   
..KEY TO REMARKS
 
 
VSB - VISIBILITY IN MILES  
WCI - WIND CHILL INDEX  
HX - HEAT INDEX  
 
 
 
CLICK HERE TO GO TO PREVIOUS BULLETINS.

The Nexlab TN Page Main Text Page